Private Wetterstation Wechselburg
Wetterdaten: Montag, 29.03.2021
Datum Zeit Temp. +2m Bodentemp. Temp.+5cm Temp. Wind Windchill X Diff Temp. Feuchte +2m Feuchte +5cm Luftdruck Regen Wind Richtung Richtung Sonnenschein Taupunkt Windchill Windben
29.03.2021 00:00 9,4 C 7,8 C 8,2 C 9,3 C 9,0 C 0,0 C 66 % 71 % 1030,5 hPa 0,0 l/m 1,3 km/h (1 Bft) S 180 0 min 3,4 C 9,0 C 5,1 km/h (1 Bft)
29.03.2021 00:05 9,4 C 7,8 C 8,1 C 9,3 C 9,0 C 0,0 C 66 % 72 % 1030,5 hPa 0,0 l/m 2,3 km/h (1 Bft) S 180 0 min 3,4 C 9,0 C 3,9 km/h (1 Bft)
29.03.2021 00:11 9,3 C 7,8 C 7,9 C 9,1 C 8,7 C 0,0 C 66 % 72 % 1030,5 hPa 0,0 l/m 2,3 km/h (1 Bft) N 0 0 min 3,3 C 8,7 C 0,0 km/h (0 Bft)
29.03.2021 00:26 8,9 C 7,8 C 7,8 C 8,7 C 8,2 C 0,0 C 67 % 72 % 1030,4 hPa 0,0 l/m 0,0 km/h (0 Bft) S 180 0 min 3,1 C 8,2 C 0,0 km/h (0 Bft)
29.03.2021 00:27 8,8 C 7,8 C 7,8 C 8,6 C 8,1 C 0,0 C 67 % 73 % 1030,4 hPa 0,0 l/m 0,0 km/h (0 Bft) SW 225 0 min 3,0 C 8,1 C 0,0 km/h (0 Bft)
29.03.2021 00:39 8,7 C 7,8 C 7,9 C 8,5 C 8,2 C 0,0 C 68 % 73 % 1030,9 hPa 0,0 l/m 0,0 km/h (0 Bft) W-SW 247 0 min 3,1 C 8,2 C 0,0 km/h (0 Bft)
29.03.2021 00:40 8,7 C 7,8 C 7,9 C 8,5 C 8,2 C 0,0 C 68 % 73 % 1030,9 hPa 0,0 l/m 0,0 km/h (0 Bft) W-SW 247 0 min 3,1 C 8,2 C 0,0 km/h (0 Bft)
29.03.2021 00:45 8,7 C 7,8 C 7,8 C 8,5 C 8,2 C 0,0 C 69 % 73 % 1030,9 hPa 0,0 l/m 0,0 km/h (0 Bft) S 180 0 min 3,3 C 8,2 C 0,0 km/h (0 Bft)
29.03.2021 00:50 8,6 C 7,8 C 7,9 C 8,5 C 8,3 C 0,0 C 69 % 72 % 1030,9 hPa 0,0 l/m 0,2 km/h (0 Bft) W-SW 247 0 min 3,2 C 8,3 C 2,6 km/h (1 Bft)
29.03.2021 00:55 8,7 C 7,8 C 7,9 C 8,6 C 8,4 C 0,0 C 69 % 72 % 1030,9 hPa 0,0 l/m 0,3 km/h (0 Bft) S-SO 157 0 min 3,3 C 8,4 C 0,0 km/h (0 Bft)
29.03.2021 01:00 8,6 C 7,8 C 8,0 C 8,5 C 8,4 C 0,0 C 69 % 72 % 1030,6 hPa 0,0 l/m 0,2 km/h (0 Bft) NO 45 0 min 3,2 C 8,4 C 0,0 km/h (0 Bft)
29.03.2021 01:05 8,7 C 7,8 C 8,0 C 8,6 C 8,4 C 0,0 C 69 % 72 % 1030,6 hPa 0,0 l/m 0,2 km/h (0 Bft) S-SO 157 0 min 3,3 C 8,4 C 0,0 km/h (0 Bft)
29.03.2021 01:10 8,5 C 7,9 C 7,9 C 8,4 C 8,2 C 0,0 C 69 % 72 % 1030,6 hPa 0,0 l/m 0,2 km/h (0 Bft) S 180 0 min 3,1 C 8,2 C 2,3 km/h (1 Bft)
29.03.2021 01:15 8,6 C 7,9 C 7,9 C 8,5 C 8,2 C 0,0 C 69 % 72 % 1030,6 hPa 0,0 l/m 0,3 km/h (0 Bft) S 180 0 min 3,2 C 8,2 C 0,0 km/h (0 Bft)
29.03.2021 01:20 8,7 C 7,9 C 7,9 C 8,5 C 8,2 C 0,0 C 69 % 72 % 1030,7 hPa 0,0 l/m 0,2 km/h (0 Bft) S 180 0 min 3,3 C 8,2 C 0,0 km/h (0 Bft)
29.03.2021 01:25 8,7 C 7,9 C 7,9 C 8,5 C 8,2 C 0,0 C 69 % 72 % 1030,7 hPa 0,0 l/m 0,0 km/h (0 Bft) W-SW 247 0 min 3,3 C 8,2 C 0,0 km/h (0 Bft)
29.03.2021 01:30 8,6 C 7,9 C 7,7 C 8,5 C 8,2 C 0,0 C 69 % 73 % 1030,7 hPa 0,0 l/m 0,3 km/h (0 Bft) SW 225 0 min 3,2 C 8,2 C 2,7 km/h (1 Bft)
29.03.2021 01:35 8,6 C 7,9 C 7,6 C 8,5 C 8,2 C 0,0 C 69 % 73 % 1030,7 hPa 0,0 l/m 0,3 km/h (0 Bft) W-SW 247 0 min 3,2 C 8,2 C 0,0 km/h (0 Bft)
29.03.2021 01:40 8,7 C 7,9 C 7,6 C 8,5 C 8,2 C 0,0 C 69 % 73 % 1030,6 hPa 0,0 l/m 0,5 km/h (0 Bft) S-SO 157 0 min 3,3 C 8,2 C 3,4 km/h (1 Bft)
29.03.2021 01:45 8,7 C 7,9 C 7,6 C 8,5 C 8,2 C 0,0 C 69 % 73 % 1030,6 hPa 0,0 l/m 0,5 km/h (0 Bft) SO 135 0 min 3,3 C 8,2 C 0,0 km/h (0 Bft)
29.03.2021 01:50 8,6 C 7,9 C 7,6 C 8,5 C 8,2 C 0,0 C 69 % 73 % 1030,6 hPa 0,0 l/m 0,5 km/h (0 Bft) SO 135 0 min 3,2 C 8,2 C 4,7 km/h (1 Bft)
29.03.2021 01:55 8,7 C 7,9 C 7,7 C 8,5 C 8,2 C 0,0 C 69 % 72 % 1030,6 hPa 0,0 l/m 0,2 km/h (0 Bft) S-SW 202 0 min 3,3 C 8,2 C 0,0 km/h (0 Bft)
29.03.2021 02:00 8,6 C 7,9 C 7,7 C 8,5 C 8,2 C 0,0 C 68 % 72 % 1030,7 hPa 0,0 l/m 0,3 km/h (0 Bft) O-SO 112 0 min 3,0 C 8,2 C 0,0 km/h (0 Bft)
29.03.2021 02:05 8,7 C 7,9 C 7,8 C 8,5 C 8,2 C 0,0 C 68 % 72 % 1030,7 hPa 0,0 l/m 0,3 km/h (0 Bft) SW 225 0 min 3,1 C 8,2 C 0,0 km/h (0 Bft)
29.03.2021 02:11 8,7 C 7,9 C 7,7 C 8,5 C 8,2 C 0,0 C 68 % 72 % 1030,7 hPa 0,0 l/m 0,3 km/h (0 Bft) N 0 0 min 3,1 C 8,2 C 0,0 km/h (0 Bft)
29.03.2021 02:26 8,7 C 7,9 C 7,7 C 8,5 C 8,2 C 0,0 C 68 % 72 % 1030,6 hPa 0,0 l/m 0,0 km/h (0 Bft) W 270 0 min 3,1 C 8,2 C 0,0 km/h (0 Bft)
29.03.2021 02:38 8,7 C 7,9 C 7,9 C 8,7 C 8,6 C 0,0 C 68 % 72 % 1030,9 hPa 0,0 l/m 0,2 km/h (0 Bft) SW 225 0 min 3,1 C 8,6 C 0,0 km/h (0 Bft)
29.03.2021 02:40 8,7 C 7,9 C 7,9 C 8,7 C 8,6 C 0,0 C 68 % 72 % 1030,9 hPa 0,0 l/m 0,2 km/h (0 Bft) SW 225 0 min 3,1 C 8,6 C 0,0 km/h (0 Bft)
29.03.2021 02:45 8,7 C 7,9 C 8,0 C 8,7 C 8,7 C 0,0 C 68 % 72 % 1030,9 hPa 0,0 l/m 0,2 km/h (0 Bft) SO 135 0 min 3,1 C 8,7 C 0,0 km/h (0 Bft)
29.03.2021 02:50 8,8 C 7,9 C 8,0 C 8,8 C 8,8 C 0,0 C 68 % 72 % 1030,9 hPa 0,0 l/m 0,6 km/h (0 Bft) S 180 0 min 3,2 C 8,8 C 2,7 km/h (1 Bft)
29.03.2021 02:55 8,8 C 7,9 C 8,1 C 8,9 C 8,9 C 0,1 C 68 % 72 % 1030,9 hPa 0,0 l/m 0,8 km/h (0 Bft) S-SW 202 0 min 3,2 C 8,9 C 2,1 km/h (1 Bft)
29.03.2021 03:00 8,9 C 7,9 C 8,2 C 9,0 C 9,0 C 0,1 C 68 % 71 % 1031,0 hPa 0,0 l/m 0,6 km/h (0 Bft) S-SO 157 0 min 3,3 C 9,0 C 0,0 km/h (0 Bft)
29.03.2021 03:05 9,0 C 7,9 C 8,2 C 9,0 C 9,0 C 0,0 C 68 % 71 % 1031,0 hPa 0,0 l/m 0,5 km/h (0 Bft) W 270 0 min 3,4 C 9,0 C 0,0 km/h (0 Bft)
29.03.2021 03:10 8,9 C 7,9 C 8,2 C 9,0 C 9,0 C 0,1 C 68 % 71 % 1031,0 hPa 0,0 l/m 0,5 km/h (0 Bft) SO 135 0 min 3,3 C 9,0 C 2,4 km/h (1 Bft)
29.03.2021 03:15 9,1 C 7,9 C 8,3 C 9,1 C 9,1 C 0,0 C 68 % 71 % 1031,0 hPa 0,0 l/m 1,0 km/h (0 Bft) S-SW 202 0 min 3,5 C 9,1 C 0,0 km/h (0 Bft)
29.03.2021 03:20 9,1 C 7,9 C 8,3 C 9,2 C 9,2 C 0,1 C 68 % 70 % 1030,9 hPa 0,0 l/m 1,0 km/h (0 Bft) S 180 0 min 3,5 C 9,2 C 5,0 km/h (1 Bft)
29.03.2021 03:25 9,2 C 7,9 C 8,4 C 9,2 C 9,2 C 0,0 C 68 % 70 % 1030,9 hPa 0,0 l/m 0,8 km/h (0 Bft) W-SW 247 0 min 3,6 C 9,2 C 0,0 km/h (0 Bft)
29.03.2021 03:30 9,3 C 7,9 C 8,5 C 9,3 C 9,2 C 0,0 C 67 % 70 % 1030,9 hPa 0,0 l/m 1,0 km/h (0 Bft) S 180 0 min 3,5 C 9,2 C 6,1 km/h (2 Bft)
29.03.2021 03:35 9,3 C 7,9 C 8,5 C 9,4 C 9,4 C 0,1 C 67 % 70 % 1030,9 hPa 0,0 l/m 1,8 km/h (1 Bft) SO 135 0 min 3,5 C 9,4 C 4,5 km/h (1 Bft)
29.03.2021 03:40 9,4 C 7,9 C 8,6 C 9,4 C 9,4 C 0,0 C 67 % 70 % 1030,9 hPa 0,0 l/m 1,9 km/h (1 Bft) S-SO 157 0 min 3,6 C 9,4 C 4,2 km/h (1 Bft)
29.03.2021 03:45 9,5 C 7,9 C 8,6 C 9,5 C 9,5 C 0,0 C 67 % 70 % 1030,9 hPa 0,0 l/m 1,4 km/h (1 Bft) S 180 0 min 3,7 C 9,5 C 0,0 km/h (0 Bft)
29.03.2021 03:50 9,5 C 7,9 C 8,6 C 9,5 C 9,4 C 0,0 C 67 % 70 % 1030,9 hPa 0,0 l/m 0,5 km/h (0 Bft) O-SO 112 0 min 3,7 C 9,4 C 2,6 km/h (1 Bft)
29.03.2021 03:55 9,5 C 7,9 C 8,7 C 9,5 C 9,4 C 0,0 C 67 % 70 % 1030,9 hPa 0,0 l/m 0,2 km/h (0 Bft) O 90 0 min 3,7 C 9,4 C 1,8 km/h (1 Bft)
29.03.2021 04:00 9,5 C 7,9 C 8,7 C 9,5 C 9,5 C 0,0 C 66 % 69 % 1030,9 hPa 0,0 l/m 0,5 km/h (0 Bft) S 180 0 min 3,5 C 9,5 C 1,9 km/h (1 Bft)
29.03.2021 04:05 9,4 C 7,9 C 8,7 C 9,4 C 9,4 C 0,0 C 66 % 69 % 1030,9 hPa 0,0 l/m 0,3 km/h (0 Bft) SW 225 0 min 3,4 C 9,4 C 0,0 km/h (0 Bft)
29.03.2021 04:11 9,4 C 7,9 C 8,7 C 9,4 C 9,4 C 0,0 C 66 % 70 % 1030,9 hPa 0,0 l/m 0,2 km/h (0 Bft) N 0 0 min 3,4 C 9,4 C 0,0 km/h (0 Bft)
29.03.2021 04:26 9,6 C 7,9 C 8,7 C 9,6 C 9,5 C 0,0 C 66 % 70 % 1031,2 hPa 0,0 l/m 1,1 km/h (1 Bft) SW 225 0 min 3,6 C 9,5 C 0,0 km/h (0 Bft)
29.03.2021 04:38 9,6 C 7,9 C 8,7 C 9,7 C 9,7 C 0,1 C 66 % 70 % 1031,2 hPa 0,0 l/m 1,9 km/h (1 Bft) O-SO 112 0 min 3,6 C 9,7 C 6,3 km/h (2 Bft)
29.03.2021 04:40 9,6 C 7,9 C 8,7 C 9,7 C 9,7 C 0,1 C 66 % 70 % 1031,2 hPa 0,0 l/m 1,9 km/h (1 Bft) O-SO 112 0 min 3,6 C 9,7 C 1,6 km/h (1 Bft)
29.03.2021 04:45 9,7 C 7,9 C 8,7 C 9,7 C 9,7 C 0,0 C 66 % 70 % 1031,2 hPa 0,0 l/m 1,6 km/h (1 Bft) SW 225 0 min 3,7 C 9,7 C 0,0 km/h (0 Bft)
29.03.2021 04:50 9,6 C 7,9 C 8,7 C 9,7 C 9,7 C 0,1 C 66 % 69 % 1031,2 hPa 0,0 l/m 0,6 km/h (0 Bft) SW 225 0 min 3,6 C 9,7 C 0,0 km/h (0 Bft)
29.03.2021 04:55 9,7 C 7,9 C 8,7 C 9,7 C 9,6 C 0,0 C 66 % 70 % 1031,2 hPa 0,0 l/m 0,0 km/h (0 Bft) SO 135 0 min 3,7 C 9,6 C 0,0 km/h (0 Bft)
29.03.2021 05:00 9,7 C 7,9 C 8,8 C 9,6 C 9,5 C 0,0 C 66 % 70 % 1031,2 hPa 0,0 l/m 0,3 km/h (0 Bft) S-SO 157 0 min 3,7 C 9,5 C 2,3 km/h (1 Bft)
29.03.2021 05:05 9,6 C 7,9 C 8,8 C 9,6 C 9,6 C 0,0 C 66 % 69 % 1031,2 hPa 0,0 l/m 0,5 km/h (0 Bft) O-SO 112 0 min 3,6 C 9,6 C 0,0 km/h (0 Bft)
29.03.2021 05:10 9,6 C 7,9 C 8,9 C 9,6 C 9,6 C 0,0 C 66 % 69 % 1031,2 hPa 0,0 l/m 0,5 km/h (0 Bft) S 180 0 min 3,6 C 9,6 C 3,1 km/h (1 Bft)
29.03.2021 05:15 9,6 C 7,9 C 8,9 C 9,7 C 9,7 C 0,1 C 66 % 69 % 1031,2 hPa 0,0 l/m 0,3 km/h (0 Bft) S-SO 157 0 min 3,6 C 9,7 C 0,0 km/h (0 Bft)
29.03.2021 05:20 9,7 C 7,9 C 8,9 C 9,7 C 9,7 C 0,0 C 66 % 69 % 1031,1 hPa 0,0 l/m 0,6 km/h (0 Bft) S 180 0 min 3,7 C 9,7 C 0,0 km/h (0 Bft)
29.03.2021 05:25 9,7 C 7,9 C 8,9 C 9,7 C 9,7 C 0,0 C 66 % 68 % 1031,1 hPa 0,0 l/m 1,3 km/h (1 Bft) S-SO 157 0 min 3,7 C 9,7 C 4,8 km/h (1 Bft)
29.03.2021 05:30 9,9 C 7,9 C 9,0 C 9,8 C 9,7 C 0,0 C 65 % 68 % 1031,1 hPa 0,0 l/m 1,6 km/h (1 Bft) S-SO 157 0 min 3,6 C 9,7 C 6,4 km/h (2 Bft)
29.03.2021 05:35 9,9 C 7,9 C 9,0 C 9,9 C 9,8 C 0,0 C 65 % 68 % 1031,1 hPa 0,0 l/m 1,9 km/h (1 Bft) S-SO 157 0 min 3,6 C 9,8 C 2,6 km/h (1 Bft)
29.03.2021 05:40 9,9 C 7,9 C 9,0 C 9,9 C 9,8 C 0,0 C 65 % 68 % 1031,2 hPa 0,0 l/m 2,9 km/h (1 Bft) S 180 0 min 3,6 C 9,8 C 4,3 km/h (1 Bft)
29.03.2021 05:45 9,9 C 7,9 C 8,9 C 9,9 C 9,9 C 0,0 C 65 % 68 % 1031,2 hPa 0,0 l/m 3,1 km/h (1 Bft) SO 135 0 min 3,6 C 9,9 C 4,5 km/h (1 Bft)
29.03.2021 05:50 9,9 C 7,9 C 8,9 C 9,9 C 9,8 C 0,0 C 65 % 68 % 1031,2 hPa 0,0 l/m 1,4 km/h (1 Bft) W-SW 247 0 min 3,6 C 9,8 C 0,0 km/h (0 Bft)
29.03.2021 05:55 9,9 C 7,9 C 8,9 C 9,8 C 9,7 C 0,0 C 65 % 68 % 1031,2 hPa 0,0 l/m 0,6 km/h (0 Bft) SO 135 0 min 3,6 C 9,7 C 0,0 km/h (0 Bft)
29.03.2021 06:00 9,7 C 7,9 C 8,8 C 9,6 C 9,5 C 0,0 C 65 % 69 % 1031,2 hPa 0,0 l/m 1,0 km/h (0 Bft) S-SO 157 0 min 3,4 C 9,5 C 6,1 km/h (2 Bft)
29.03.2021 06:05 9,7 C 7,9 C 8,7 C 9,6 C 9,5 C 0,0 C 65 % 69 % 1031,2 hPa 0,0 l/m 1,6 km/h (1 Bft) SO 135 0 min 3,4 C 9,5 C 0,0 km/h (0 Bft)
29.03.2021 06:11 9,7 C 7,9 C 8,7 C 9,6 C 9,4 C 0,0 C 65 % 69 % 1031,2 hPa 0,0 l/m 2,1 km/h (1 Bft) N 0 0 min 3,4 C 9,4 C 5,3 km/h (1 Bft)
29.03.2021 06:26 9,6 C 7,9 C 8,5 C 9,5 C 9,2 C 0,0 C 65 % 70 % 1031,4 hPa 0,0 l/m 2,1 km/h (1 Bft) S-SO 157 0 min 3,4 C 9,2 C 4,3 km/h (1 Bft)
29.03.2021 06:38 9,6 C 7,9 C 8,5 C 9,5 C 9,2 C 0,0 C 65 % 70 % 1031,7 hPa 0,0 l/m 1,0 km/h (0 Bft) SO 135 0 min 3,4 C 9,2 C 0,0 km/h (0 Bft)
29.03.2021 06:40 9,6 C 7,9 C 8,5 C 9,5 C 9,2 C 0,0 C 65 % 70 % 1031,7 hPa 0,0 l/m 1,0 km/h (0 Bft) SO 135 0 min 3,4 C 9,2 C 0,0 km/h (0 Bft)
29.03.2021 06:45 9,6 C 7,9 C 8,5 C 9,5 C 9,2 C 0,0 C 65 % 70 % 1031,7 hPa 0,0 l/m 0,6 km/h (0 Bft) S 180 0 min 3,4 C 9,2 C 0,0 km/h (0 Bft)
29.03.2021 06:50 9,5 C 7,9 C 8,4 C 9,4 C 9,2 C 0,0 C 65 % 70 % 1031,7 hPa 0,0 l/m 1,1 km/h (1 Bft) O-SO 112 0 min 3,3 C 9,2 C 3,9 km/h (1 Bft)
29.03.2021 06:55 9,5 C 7,9 C 8,3 C 9,4 C 9,2 C 0,0 C 65 % 70 % 1031,7 hPa 0,0 l/m 1,3 km/h (1 Bft) S 180 0 min 3,3 C 9,2 C 2,4 km/h (1 Bft)
29.03.2021 07:00 9,5 C 7,9 C 8,5 C 9,4 C 9,2 C 0,0 C 65 % 70 % 1031,2 hPa 0,0 l/m 1,9 km/h (1 Bft) S-SO 157 0 min 3,3 C 9,2 C 0,0 km/h (0 Bft)
29.03.2021 07:05 9,5 C 7,9 C 8,5 C 9,4 C 9,3 C 0,0 C 65 % 70 % 1031,2 hPa 0,0 l/m 1,6 km/h (1 Bft) S 180 0 min 3,3 C 9,3 C 2,4 km/h (1 Bft)
29.03.2021 07:10 9,5 C 7,9 C 8,4 C 9,4 C 9,2 C 0,0 C 65 % 70 % 1031,2 hPa 0,0 l/m 0,8 km/h (0 Bft) SW 225 0 min 3,3 C 9,2 C 0,0 km/h (0 Bft)
29.03.2021 07:15 9,5 C 7,9 C 8,4 C 9,4 C 9,3 C 0,0 C 65 % 70 % 1031,2 hPa 0,0 l/m 1,6 km/h (1 Bft) S-SO 157 0 min 3,3 C 9,3 C 0,0 km/h (0 Bft)
29.03.2021 07:20 9,5 C 7,9 C 8,4 C 9,5 C 9,4 C 0,0 C 65 % 71 % 1031,0 hPa 0,0 l/m 1,8 km/h (1 Bft) NW 315 0 min 3,3 C 9,4 C 2,9 km/h (1 Bft)
29.03.2021 07:25 9,5 C 7,9 C 8,5 C 9,5 C 9,4 C 0,0 C 65 % 70 % 1031,0 hPa 0,0 l/m 1,1 km/h (1 Bft) O-SO 112 0 min 3,3 C 9,4 C 0,0 km/h (0 Bft)
29.03.2021 07:30 9,5 C 7,9 C 8,5 C 9,5 C 9,5 C 0,0 C 65 % 70 % 1031,0 hPa 0,0 l/m 0,3 km/h (0 Bft) S 180 0 min 3,3 C 9,5 C 0,0 km/h (0 Bft)
29.03.2021 07:35 9,5 C 7,9 C 8,6 C 9,5 C 9,5 C 0,0 C 65 % 70 % 1031,0 hPa 0,0 l/m 0,0 km/h (0 Bft) S 180 0 min 3,3 C 9,5 C 0,0 km/h (0 Bft)
29.03.2021 07:40 9,4 C 7,9 C 8,5 C 9,6 C 9,6 C 0,2 C 66 % 70 % 1031,3 hPa 0,0 l/m 0,2 km/h (0 Bft) SO 135 0 min 3,4 C 9,6 C 0,0 km/h (0 Bft)
29.03.2021 07:45 9,5 C 7,9 C 8,5 C 9,6 C 9,6 C 0,1 C 66 % 70 % 1031,3 hPa 0,0 l/m 0,3 km/h (0 Bft) S 180 0 min 3,5 C 9,6 C 1,6 km/h (1 Bft)
29.03.2021 07:50 9,5 C 7,9 C 8,5 C 9,7 C 9,7 C 0,2 C 65 % 70 % 1031,3 hPa 0,0 l/m 0,6 km/h (0 Bft) S 180 0 min 3,3 C 9,7 C 0,0 km/h (0 Bft)
29.03.2021 07:55 9,6 C 7,9 C 8,6 C 9,8 C 9,8 C 0,2 C 65 % 71 % 1031,3 hPa 0,0 l/m 0,5 km/h (0 Bft) SO 135 0 min 3,4 C 9,8 C 0,0 km/h (0 Bft)
29.03.2021 08:00 9,7 C 7,9 C 8,8 C 10,5 C 10,5 C 0,8 C 65 % 70 % 1031,4 hPa 0,0 l/m 1,8 km/h (1 Bft) S 180 0 min 3,4 C 10,5 C 6,6 km/h (2 Bft)
29.03.2021 08:05 9,7 C 7,9 C 8,9 C 10,7 C 10,7 C 1,0 C 65 % 70 % 1031,4 hPa 0,0 l/m 2,4 km/h (1 Bft) S-SO 157 0 min 3,4 C 10,7 C 5,8 km/h (2 Bft)
29.03.2021 08:11 9,9 C 8,0 C 9,2 C 10,9 C 10,9 C 1,0 C 65 % 70 % 1031,4 hPa 0,0 l/m 1,6 km/h (1 Bft) N 0 0 min 3,6 C 10,9 C 3,2 km/h (1 Bft)
29.03.2021 08:26 10,3 C 8,0 C 10,0 C 13,0 C 13,0 C 2,7 C 65 % 67 % 1031,1 hPa 0,0 l/m 2,1 km/h (1 Bft) SW 225 15 min 4,0 C 13,0 C 2,3 km/h (1 Bft)
29.03.2021 08:30 10,4 C 8,0 C 10,1 C 12,6 C 12,6 C 2,2 C 64 % 67 % 1031,1 hPa 0,0 l/m 1,0 km/h (0 Bft) S-SW 202 0 min 3,9 C 12,6 C 2,6 km/h (1 Bft)
29.03.2021 08:35 10,5 C 8,0 C 10,2 C 12,5 C 12,5 C 2,0 C 64 % 67 % 1031,1 hPa 0,0 l/m 0,6 km/h (0 Bft) SW 225 0 min 4,0 C 12,5 C 0,0 km/h (0 Bft)
29.03.2021 08:40 10,7 C 8,0 C 10,3 C 12,2 C 12,2 C 1,5 C 64 % 66 % 1031,6 hPa 0,0 l/m 1,1 km/h (1 Bft) SW 225 0 min 4,2 C 12,2 C 0,0 km/h (0 Bft)
29.03.2021 08:45 10,6 C 8,0 C 10,3 C 12,0 C 12,0 C 1,4 C 64 % 66 % 1031,6 hPa 0,0 l/m 1,1 km/h (1 Bft) W-SW 247 0 min 4,1 C 12,0 C 0,0 km/h (0 Bft)
29.03.2021 08:50 10,7 C 8,0 C 10,5 C 12,0 C 12,0 C 1,3 C 64 % 65 % 1031,6 hPa 0,0 l/m 1,1 km/h (1 Bft) SW 225 0 min 4,2 C 12,0 C 6,9 km/h (2 Bft)
29.03.2021 08:55 10,9 C 8,0 C 10,5 C 12,0 C 12,0 C 1,1 C 63 % 65 % 1031,6 hPa 0,0 l/m 1,3 km/h (1 Bft) NO 45 0 min 4,1 C 12,0 C 3,1 km/h (1 Bft)
29.03.2021 09:00 10,8 C 8,0 C 10,7 C 12,0 C 12,0 C 1,2 C 63 % 64 % 1031,6 hPa 0,0 l/m 1,6 km/h (1 Bft) W 270 0 min 4,0 C 12,0 C 7,4 km/h (2 Bft)
29.03.2021 09:05 10,9 C 8,0 C 10,8 C 12,2 C 12,2 C 1,3 C 63 % 63 % 1031,6 hPa 0,0 l/m 1,6 km/h (1 Bft) N-NW 337 0 min 4,1 C 12,2 C 0,0 km/h (0 Bft)
29.03.2021 09:10 11,1 C 8,0 C 11,0 C 12,4 C 12,4 C 1,3 C 63 % 63 % 1031,6 hPa 0,0 l/m 2,9 km/h (1 Bft) O-NO 67 0 min 4,3 C 12,4 C 12,1 km/h (2 Bft)
29.03.2021 09:15 11,1 C 8,0 C 11,0 C 12,5 C 12,5 C 1,4 C 63 % 63 % 1031,6 hPa 0,0 l/m 3,2 km/h (1 Bft) W-SW 247 0 min 4,3 C 12,5 C 2,9 km/h (1 Bft)
29.03.2021 09:20 11,1 C 8,0 C 11,1 C 12,6 C 12,6 C 1,5 C 62 % 63 % 1031,6 hPa 0,0 l/m 3,5 km/h (1 Bft) W 270 0 min 4,1 C 12,6 C 6,4 km/h (2 Bft)
29.03.2021 09:25 11,2 C 8,0 C 11,4 C 12,9 C 12,9 C 1,7 C 62 % 62 % 1031,6 hPa 0,0 l/m 3,5 km/h (1 Bft) SW 225 0 min 4,2 C 12,9 C 3,1 km/h (1 Bft)
29.03.2021 09:30 11,5 C 8,0 C 11,6 C 13,5 C 13,5 C 2,0 C 62 % 62 % 1031,6 hPa 0,0 l/m 2,6 km/h (1 Bft) S 180 0 min 4,5 C 13,5 C 7,6 km/h (2 Bft)
29.03.2021 09:35 11,5 C 8,0 C 11,7 C 13,6 C 13,6 C 2,1 C 62 % 61 % 1031,6 hPa 0,0 l/m 2,4 km/h (1 Bft) O-SO 112 0 min 4,5 C 13,6 C 2,7 km/h (1 Bft)
29.03.2021 09:40 11,7 C 8,0 C 11,8 C 13,6 C 13,6 C 1,9 C 61 % 61 % 1031,8 hPa 0,0 l/m 3,4 km/h (1 Bft) W 270 0 min 4,4 C 13,6 C 4,2 km/h (1 Bft)
29.03.2021 09:45 11,6 C 8,0 C 11,9 C 13,6 C 13,6 C 2,0 C 61 % 61 % 1031,8 hPa 0,0 l/m 3,4 km/h (1 Bft) S 180 0 min 4,3 C 13,6 C 6,3 km/h (2 Bft)
29.03.2021 09:50 11,7 C 8,1 C 12,1 C 13,8 C 13,8 C 2,1 C 61 % 61 % 1031,8 hPa 0,0 l/m 2,4 km/h (1 Bft) SW 225 0 min 4,4 C 13,8 C 4,0 km/h (1 Bft)
29.03.2021 09:55 11,9 C 8,1 C 12,1 C 14,0 C 14,0 C 2,1 C 61 % 61 % 1031,8 hPa 0,0 l/m 1,9 km/h (1 Bft) S 180 0 min 4,6 C 14,0 C 3,4 km/h (1 Bft)
29.03.2021 10:00 11,9 C 8,1 C 12,1 C 13,9 C 13,9 C 2,0 C 61 % 60 % 1032,1 hPa 0,0 l/m 2,4 km/h (1 Bft) S-SW 202 0 min 4,6 C 13,9 C 10,6 km/h (2 Bft)
29.03.2021 10:05 11,9 C 8,1 C 12,1 C 13,8 C 13,8 C 1,9 C 60 % 60 % 1032,1 hPa 0,0 l/m 2,7 km/h (1 Bft) SO 135 0 min 4,4 C 13,8 C 4,8 km/h (1 Bft)
29.03.2021 10:10 11,9 C 8,1 C 12,1 C 13,9 C 13,9 C 2,0 C 60 % 59 % 1032,1 hPa 0,0 l/m 3,4 km/h (1 Bft) SW 225 0 min 4,4 C 13,9 C 4,0 km/h (1 Bft)
29.03.2021 10:15 12,0 C 8,1 C 12,3 C 14,4 C 14,4 C 2,4 C 60 % 60 % 1032,1 hPa 0,0 l/m 4,0 km/h (1 Bft) O-SO 112 0 min 4,5 C 14,4 C 5,8 km/h (2 Bft)
29.03.2021 10:20 12,3 C 8,1 C 12,9 C 15,4 C 15,4 C 3,1 C 61 % 60 % 1031,6 hPa 0,0 l/m 2,4 km/h (1 Bft) SW 225 0 min 5,0 C 15,4 C 15,8 km/h (3 Bft)
29.03.2021 10:25 12,5 C 8,1 C 13,2 C 15,7 C 15,7 C 3,2 C 60 % 58 % 1031,6 hPa 0,0 l/m 2,3 km/h (1 Bft) SO 135 0 min 5,0 C 15,7 C 8,5 km/h (2 Bft)
29.03.2021 10:30 12,7 C 8,1 C 13,4 C 15,8 C 15,8 C 3,1 C 60 % 57 % 1031,6 hPa 0,0 l/m 4,0 km/h (1 Bft) W-SW 247 0 min 5,1 C 15,8 C 4,8 km/h (1 Bft)
29.03.2021 10:35 12,7 C 8,1 C 13,5 C 16,0 C 16,0 C 3,3 C 60 % 58 % 1031,6 hPa 0,0 l/m 4,3 km/h (1 Bft) S 180 5 min 5,1 C 16,0 C 15,8 km/h (3 Bft)
29.03.2021 10:40 12,7 C 8,1 C 13,7 C 15,8 C 15,8 C 3,1 C 60 % 58 % 1031,6 hPa 0,0 l/m 3,5 km/h (1 Bft) SW 225 0 min 5,1 C 15,8 C 5,3 km/h (1 Bft)
29.03.2021 10:45 12,8 C 8,1 C 13,7 C 15,9 C 15,9 C 3,1 C 59 % 56 % 1031,6 hPa 0,0 l/m 3,9 km/h (1 Bft) SO 135 0 min 5,0 C 15,9 C 6,6 km/h (2 Bft)
29.03.2021 10:50 13,0 C 8,2 C 13,9 C 15,8 C 15,8 C 2,8 C 58 % 56 % 1031,6 hPa 0,0 l/m 4,8 km/h (1 Bft) W-SW 247 0 min 4,9 C 15,8 C 9,0 km/h (2 Bft)
29.03.2021 10:55 13,0 C 8,1 C 14,5 C 16,1 C 16,1 C 3,1 C 58 % 54 % 1031,6 hPa 0,0 l/m 6,4 km/h (2 Bft) SW 225 0 min 4,9 C 16,1 C 9,0 km/h (2 Bft)
29.03.2021 11:00 13,2 C 8,1 C 14,3 C 16,1 C 16,1 C 2,9 C 58 % 54 % 1032,4 hPa 0,0 l/m 6,3 km/h (2 Bft) SO 135 0 min 5,1 C 16,1 C 17,1 km/h (3 Bft)
29.03.2021 11:05 13,3 C 8,1 C 14,2 C 15,9 C 15,9 C 2,6 C 57 % 54 % 1032,4 hPa 0,0 l/m 5,0 km/h (1 Bft) O-NO 67 0 min 5,0 C 15,9 C 2,7 km/h (1 Bft)
29.03.2021 11:10 13,3 C 8,1 C 14,3 C 15,8 C 15,8 C 2,5 C 57 % 55 % 1032,4 hPa 0,0 l/m 4,5 km/h (1 Bft) S-SW 202 0 min 5,0 C 15,8 C 5,3 km/h (1 Bft)
29.03.2021 11:15 13,3 C 8,1 C 14,3 C 15,9 C 15,9 C 2,6 C 57 % 54 % 1032,4 hPa 0,0 l/m 4,5 km/h (1 Bft) W-SW 247 0 min 5,0 C 15,9 C 5,5 km/h (1 Bft)
29.03.2021 11:20 13,5 C 8,1 C 14,5 C 16,2 C 16,2 C 2,7 C 57 % 54 % 1032,5 hPa 0,0 l/m 4,8 km/h (1 Bft) SW 225 0 min 5,2 C 16,2 C 9,3 km/h (2 Bft)
29.03.2021 11:25 13,5 C 8,1 C 14,6 C 16,3 C 16,3 C 2,8 C 56 % 53 % 1032,5 hPa 0,0 l/m 6,3 km/h (2 Bft) SW 225 0 min 4,9 C 16,3 C 9,3 km/h (2 Bft)
29.03.2021 11:30 13,6 C 8,1 C 14,6 C 16,1 C 16,1 C 2,5 C 56 % 53 % 1032,5 hPa 0,0 l/m 6,1 km/h (2 Bft) SW 225 0 min 5,0 C 16,1 C 17,5 km/h (3 Bft)
29.03.2021 11:35 13,6 C 8,2 C 14,5 C 16,0 C 16,0 C 2,4 C 56 % 54 % 1032,5 hPa 0,0 l/m 6,3 km/h (2 Bft) S 180 0 min 5,0 C 16,0 C 9,7 km/h (2 Bft)
29.03.2021 11:40 13,5 C 8,2 C 14,4 C 15,8 C 15,7 C 2,3 C 55 % 53 % 1032,4 hPa 0,0 l/m 8,2 km/h (2 Bft) SW 225 0 min 4,6 C 15,7 C 10,9 km/h (2 Bft)
29.03.2021 11:45 13,6 C 8,2 C 14,5 C 15,8 C 15,8 C 2,2 C 56 % 54 % 1032,4 hPa 0,0 l/m 6,6 km/h (2 Bft) W-SW 247 0 min 5,0 C 15,8 C 3,4 km/h (1 Bft)
29.03.2021 11:50 13,9 C 8,2 C 14,7 C 16,3 C 16,3 C 2,4 C 56 % 53 % 1032,4 hPa 0,0 l/m 4,0 km/h (1 Bft) S 180 0 min 5,3 C 16,3 C 9,7 km/h (2 Bft)
29.03.2021 11:55 13,9 C 8,2 C 14,8 C 16,4 C 16,4 C 2,5 C 56 % 54 % 1032,4 hPa 0,0 l/m 4,2 km/h (1 Bft) S-SO 157 0 min 5,3 C 16,4 C 3,7 km/h (1 Bft)
29.03.2021 12:00 14,0 C 8,2 C 14,8 C 16,4 C 16,4 C 2,4 C 56 % 54 % 1032,4 hPa 0,0 l/m 5,3 km/h (1 Bft) SW 225 0 min 5,4 C 16,4 C 11,1 km/h (2 Bft)
29.03.2021 12:05 14,0 C 8,2 C 14,7 C 16,2 C 16,2 C 2,2 C 55 % 54 % 1032,4 hPa 0,0 l/m 5,5 km/h (1 Bft) S 180 0 min 5,1 C 16,2 C 6,9 km/h (2 Bft)
29.03.2021 12:10 13,9 C 8,2 C 14,6 C 15,9 C 15,9 C 2,0 C 55 % 53 % 1032,4 hPa 0,0 l/m 6,3 km/h (2 Bft) S-SO 157 0 min 5,0 C 15,9 C 4,8 km/h (1 Bft)
29.03.2021 12:15 13,9 C 8,2 C 14,5 C 15,7 C 15,7 C 1,8 C 55 % 54 % 1032,4 hPa 0,0 l/m 6,0 km/h (2 Bft) W-SW 247 0 min 5,0 C 15,7 C 4,5 km/h (1 Bft)
29.03.2021 12:20 14,0 C 8,3 C 14,5 C 15,8 C 15,8 C 1,8 C 55 % 54 % 1032,7 hPa 0,0 l/m 5,1 km/h (1 Bft) S 180 0 min 5,1 C 15,8 C 12,6 km/h (3 Bft)
29.03.2021 12:25 14,1 C 8,3 C 14,7 C 15,9 C 15,9 C 1,8 C 55 % 54 % 1032,7 hPa 0,0 l/m 4,8 km/h (1 Bft) S-SW 202 0 min 5,2 C 15,9 C 2,3 km/h (1 Bft)
29.03.2021 12:30 14,3 C 8,3 C 15,0 C 16,4 C 16,4 C 2,1 C 56 % 53 % 1032,7 hPa 0,0 l/m 4,3 km/h (1 Bft) O 90 0 min 5,6 C 16,4 C 3,2 km/h (1 Bft)
29.03.2021 12:35 14,5 C 8,3 C 15,5 C 17,1 C 17,1 C 2,6 C 56 % 52 % 1032,7 hPa 0,0 l/m 3,9 km/h (1 Bft) S-SO 157 0 min 5,8 C 17,1 C 2,3 km/h (1 Bft)
29.03.2021 12:40 14,6 C 8,3 C 15,6 C 17,4 C 17,4 C 2,8 C 55 % 52 % 1032,1 hPa 0,0 l/m 4,7 km/h (1 Bft) SW 225 0 min 5,7 C 17,4 C 12,2 km/h (2 Bft)
29.03.2021 12:45 14,6 C 8,3 C 15,7 C 17,3 C 17,3 C 2,7 C 54 % 51 % 1032,1 hPa 0,0 l/m 6,3 km/h (2 Bft) O 90 0 min 5,4 C 17,3 C 6,1 km/h (2 Bft)
29.03.2021 12:50 14,7 C 8,3 C 15,9 C 17,6 C 17,6 C 2,9 C 54 % 51 % 1032,1 hPa 0,0 l/m 6,9 km/h (2 Bft) NW 315 0 min 5,5 C 17,6 C 10,6 km/h (2 Bft)
29.03.2021 12:55 14,9 C 8,4 C 15,9 C 17,6 C 17,6 C 2,7 C 54 % 50 % 1032,1 hPa 0,0 l/m 6,8 km/h (2 Bft) S-SW 202 0 min 5,7 C 17,6 C 11,7 km/h (2 Bft)
29.03.2021 13:00 14,8 C 8,4 C 15,9 C 17,6 C 17,6 C 2,8 C 52 % 49 % 1032,1 hPa 0,0 l/m 7,2 km/h (2 Bft) W 270 0 min 5,0 C 17,6 C 20,3 km/h (4 Bft)
29.03.2021 13:05 14,8 C 8,4 C 15,9 C 17,5 C 17,5 C 2,7 C 52 % 49 % 1032,1 hPa 0,0 l/m 6,9 km/h (2 Bft) W 270 0 min 5,0 C 17,5 C 5,3 km/h (1 Bft)
29.03.2021 13:10 15,1 C 8,4 C 16,4 C 17,9 C 17,9 C 2,8 C 52 % 49 % 1032,1 hPa 0,0 l/m 9,0 km/h (2 Bft) SO 135 0 min 5,3 C 17,9 C 10,1 km/h (2 Bft)
29.03.2021 13:15 15,2 C 8,4 C 16,4 C 18,1 C 18,1 C 2,9 C 52 % 49 % 1032,1 hPa 0,0 l/m 8,9 km/h (2 Bft) S 180 0 min 5,4 C 18,1 C 11,7 km/h (2 Bft)
29.03.2021 13:20 15,1 C 8,4 C 16,1 C 17,5 C 17,5 C 2,4 C 51 % 49 % 1031,8 hPa 0,0 l/m 10,1 km/h (2 Bft) S-SW 202 0 min 5,0 C 17,5 C 10,9 km/h (2 Bft)
29.03.2021 13:25 15,1 C 8,4 C 15,9 C 17,2 C 17,2 C 2,1 C 51 % 49 % 1031,8 hPa 0,0 l/m 10,0 km/h (2 Bft) SW 225 0 min 5,0 C 17,2 C 9,8 km/h (2 Bft)
29.03.2021 13:30 15,2 C 8,5 C 16,3 C 17,5 C 17,5 C 2,3 C 52 % 50 % 1031,8 hPa 0,0 l/m 7,2 km/h (2 Bft) SW 225 0 min 5,4 C 17,5 C 8,5 km/h (2 Bft)
29.03.2021 13:35 15,5 C 8,5 C 17,0 C 18,4 C 18,4 C 2,9 C 52 % 50 % 1031,8 hPa 0,0 l/m 7,6 km/h (2 Bft) SW 225 0 min 5,7 C 18,4 C 10,9 km/h (2 Bft)
29.03.2021 13:40 15,6 C 8,5 C 17,1 C 18,7 C 18,7 C 3,1 C 51 % 49 % 1031,8 hPa 0,0 l/m 8,9 km/h (2 Bft) W 270 0 min 5,5 C 18,7 C 6,1 km/h (2 Bft)
29.03.2021 13:45 15,7 C 8,5 C 17,1 C 18,8 C 18,8 C 3,1 C 51 % 48 % 1031,8 hPa 0,0 l/m 8,2 km/h (2 Bft) SW 225 0 min 5,6 C 18,8 C 5,6 km/h (1 Bft)
29.03.2021 13:50 15,9 C 8,5 C 16,9 C 18,7 C 18,7 C 2,8 C 51 % 48 % 1031,8 hPa 0,0 l/m 8,0 km/h (2 Bft) W-SW 247 0 min 5,8 C 18,7 C 13,4 km/h (3 Bft)
29.03.2021 13:55 15,9 C 8,5 C 16,9 C 18,7 C 18,7 C 2,8 C 51 % 49 % 1031,8 hPa 0,0 l/m 7,9 km/h (2 Bft) S-SO 157 0 min 5,8 C 18,7 C 9,0 km/h (2 Bft)
29.03.2021 14:00 16,0 C 8,6 C 17,4 C 18,6 C 18,6 C 2,6 C 51 % 49 % 1032,0 hPa 0,0 l/m 9,0 km/h (2 Bft) S-SW 202 0 min 5,9 C 18,6 C 13,8 km/h (3 Bft)
29.03.2021 14:05 16,3 C 8,6 C 18,3 C 19,8 C 19,8 C 3,5 C 52 % 49 % 1032,0 hPa 0,0 l/m 9,7 km/h (2 Bft) SW 225 5 min 6,4 C 19,8 C 15,3 km/h (3 Bft)
29.03.2021 14:10 16,7 C 8,6 C 18,7 C 20,5 C 20,5 C 3,8 C 51 % 47 % 1032,0 hPa 0,0 l/m 9,8 km/h (2 Bft) SW 225 5 min 6,5 C 20,5 C 12,6 km/h (3 Bft)
29.03.2021 14:15 16,8 C 8,6 C 18,7 C 20,9 C 20,9 C 4,1 C 52 % 46 % 1032,0 hPa 0,0 l/m 9,5 km/h (2 Bft) W 270 5 min 6,9 C 20,9 C 4,7 km/h (1 Bft)
29.03.2021 14:20 17,1 C 8,7 C 18,3 C 20,5 C 20,5 C 3,4 C 51 % 47 % 1031,7 hPa 0,0 l/m 8,0 km/h (2 Bft) SW 225 5 min 6,9 C 20,5 C 8,9 km/h (2 Bft)
29.03.2021 14:25 17,1 C 8,7 C 18,2 C 20,7 C 20,7 C 3,6 C 51 % 47 % 1031,7 hPa 0,0 l/m 7,2 km/h (2 Bft) S 180 5 min 6,9 C 20,7 C 15,4 km/h (3 Bft)
29.03.2021 14:30 17,0 C 8,7 C 18,0 C 20,4 C 20,4 C 3,4 C 50 % 47 % 1031,7 hPa 0,0 l/m 8,5 km/h (2 Bft) W 270 5 min 6,5 C 20,4 C 5,8 km/h (2 Bft)
29.03.2021 14:35 17,2 C 8,7 C 17,9 C 20,3 C 20,3 C 3,1 C 50 % 48 % 1031,7 hPa 0,0 l/m 9,2 km/h (2 Bft) W-SW 247 0 min 6,7 C 20,3 C 6,6 km/h (2 Bft)
29.03.2021 14:40 17,7 C 8,7 C 18,1 C 21,5 C 21,5 C 3,8 C 48 % 45 % 1031,4 hPa 0,0 l/m 7,7 km/h (2 Bft) S 180 5 min 6,6 C 21,5 C 8,5 km/h (2 Bft)
29.03.2021 14:45 17,7 C 8,7 C 18,0 C 21,7 C 21,7 C 4,0 C 47 % 46 % 1031,4 hPa 0,0 l/m 8,9 km/h (2 Bft) S-SW 202 5 min 6,2 C 21,7 C 17,9 km/h (3 Bft)
29.03.2021 14:50 17,9 C 8,7 C 17,9 C 21,5 C 21,5 C 3,6 C 48 % 48 % 1031,4 hPa 0,0 l/m 10,3 km/h (2 Bft) SW 225 5 min 6,7 C 21,5 C 21,6 km/h (4 Bft)
29.03.2021 14:55 18,0 C 8,7 C 17,9 C 21,8 C 21,8 C 3,8 C 48 % 47 % 1031,4 hPa 0,0 l/m 9,8 km/h (2 Bft) W-SW 247 5 min 6,8 C 21,8 C 8,4 km/h (2 Bft)
29.03.2021 15:00 18,2 C 8,8 C 17,9 C 22,1 C 22,1 C 3,9 C 47 % 46 % 1031,4 hPa 0,0 l/m 7,7 km/h (2 Bft) SW 225 5 min 6,7 C 22,1 C 13,5 km/h (3 Bft)
29.03.2021 15:05 18,3 C 8,8 C 17,9 C 22,1 C 22,1 C 3,8 C 47 % 46 % 1031,4 hPa 0,0 l/m 7,7 km/h (2 Bft) S-SW 202 5 min 6,8 C 22,1 C 7,7 km/h (2 Bft)
29.03.2021 15:10 18,4 C 8,9 C 18,1 C 22,2 C 22,2 C 3,8 C 47 % 48 % 1031,4 hPa 0,0 l/m 9,0 km/h (2 Bft) SW 225 5 min 6,9 C 22,2 C 10,3 km/h (2 Bft)
29.03.2021 15:15 18,4 C 8,9 C 18,1 C 22,1 C 22,1 C 3,7 C 46 % 46 % 1031,4 hPa 0,0 l/m 8,7 km/h (2 Bft) S 180 5 min 6,6 C 22,1 C 10,1 km/h (2 Bft)
29.03.2021 15:20 18,5 C 8,9 C 18,0 C 22,2 C 22,2 C 3,7 C 46 % 47 % 1031,2 hPa 0,0 l/m 7,7 km/h (2 Bft) S 180 5 min 6,7 C 22,2 C 14,3 km/h (3 Bft)
29.03.2021 15:25 18,6 C 8,9 C 18,1 C 22,1 C 22,1 C 3,5 C 45 % 46 % 1031,2 hPa 0,0 l/m 8,9 km/h (2 Bft) S-SO 157 5 min 6,4 C 22,1 C 15,4 km/h (3 Bft)
29.03.2021 15:30 18,7 C 9,0 C 18,3 C 22,1 C 22,1 C 3,4 C 45 % 46 % 1031,2 hPa 0,0 l/m 10,8 km/h (2 Bft) SO 135 5 min 6,5 C 22,1 C 5,3 km/h (1 Bft)
29.03.2021 15:35 19,0 C 9,0 C 18,4 C 22,7 C 22,7 C 3,7 C 46 % 47 % 1031,2 hPa 0,0 l/m 9,7 km/h (2 Bft) W-SW 247 5 min 7,1 C 22,7 C 13,7 km/h (3 Bft)
29.03.2021 15:40 19,1 C 9,0 C 18,4 C 22,6 C 22,6 C 3,5 C 46 % 47 % 1031,1 hPa 0,0 l/m 8,9 km/h (2 Bft) S 180 5 min 7,2 C 22,6 C 17,7 km/h (3 Bft)
29.03.2021 15:45 19,0 C 9,0 C 18,5 C 22,7 C 22,7 C 3,7 C 46 % 47 % 1031,1 hPa 0,0 l/m 9,2 km/h (2 Bft) S-SW 202 5 min 7,1 C 22,7 C 10,0 km/h (2 Bft)
29.03.2021 15:50 19,2 C 9,0 C 18,5 C 22,8 C 22,8 C 3,6 C 46 % 47 % 1031,1 hPa 0,0 l/m 7,6 km/h (2 Bft) O-SO 112 5 min 7,3 C 22,8 C 8,4 km/h (2 Bft)
29.03.2021 15:55 19,3 C 9,0 C 18,5 C 22,7 C 22,7 C 3,4 C 46 % 47 % 1031,1 hPa 0,0 l/m 8,0 km/h (2 Bft) S-SW 202 5 min 7,4 C 22,7 C 10,5 km/h (2 Bft)
29.03.2021 16:00 19,3 C 9,1 C 18,5 C 22,5 C 22,5 C 3,2 C 45 % 45 % 1031,0 hPa 0,0 l/m 7,9 km/h (2 Bft) SW 225 0 min 7,1 C 22,5 C 11,6 km/h (2 Bft)
29.03.2021 16:05 19,3 C 9,2 C 18,5 C 22,3 C 22,3 C 3,0 C 43 % 44 % 1031,0 hPa 0,0 l/m 8,7 km/h (2 Bft) SW 225 0 min 6,4 C 22,3 C 9,0 km/h (2 Bft)
29.03.2021 16:10 19,3 C 9,2 C 18,6 C 22,3 C 22,3 C 3,0 C 44 % 45 % 1031,0 hPa 0,0 l/m 9,3 km/h (2 Bft) SW 225 0 min 6,7 C 22,3 C 9,0 km/h (2 Bft)
29.03.2021 16:15 19,5 C 9,2 C 18,8 C 22,7 C 22,7 C 3,2 C 44 % 46 % 1031,0 hPa 0,0 l/m 8,7 km/h (2 Bft) W-SW 247 0 min 6,9 C 22,7 C 11,7 km/h (2 Bft)
29.03.2021 16:20 19,5 C 9,2 C 18,9 C 22,7 C 22,7 C 3,2 C 43 % 45 % 1030,9 hPa 0,0 l/m 10,8 km/h (2 Bft) SW 225 0 min 6,6 C 22,7 C 7,2 km/h (2 Bft)
29.03.2021 16:25 19,5 C 9,2 C 18,9 C 22,7 C 22,7 C 3,2 C 44 % 45 % 1030,9 hPa 0,0 l/m 11,1 km/h (2 Bft) SW 225 0 min 6,9 C 22,7 C 10,9 km/h (2 Bft)
29.03.2021 16:30 19,7 C 9,3 C 18,9 C 22,9 C 22,9 C 3,2 C 44 % 44 % 1030,9 hPa 0,0 l/m 8,9 km/h (2 Bft) SW 225 0 min 7,1 C 22,9 C 10,8 km/h (2 Bft)
29.03.2021 16:35 19,7 C 9,3 C 18,9 C 22,9 C 22,9 C 3,2 C 44 % 44 % 1030,9 hPa 0,0 l/m 8,4 km/h (2 Bft) S-SO 157 0 min 7,1 C 22,9 C 13,5 km/h (3 Bft)
29.03.2021 16:40 19,8 C 9,3 C 19,0 C 22,8 C 22,8 C 3,0 C 43 % 44 % 1030,6 hPa 0,0 l/m 8,2 km/h (2 Bft) SW 225 0 min 6,9 C 22,8 C 10,1 km/h (2 Bft)
29.03.2021 16:45 19,9 C 9,3 C 19,1 C 22,7 C 22,7 C 2,8 C 43 % 44 % 1030,6 hPa 0,0 l/m 8,7 km/h (2 Bft) S 180 0 min 6,9 C 22,7 C 11,3 km/h (2 Bft)
29.03.2021 16:50 19,8 C 9,4 C 19,1 C 22,8 C 22,8 C 3,0 C 43 % 44 % 1030,6 hPa 0,0 l/m 7,9 km/h (2 Bft) S-SW 202 0 min 6,9 C 22,8 C 6,6 km/h (2 Bft)
29.03.2021 16:55 19,9 C 9,4 C 19,0 C 22,8 C 22,8 C 2,9 C 43 % 43 % 1030,6 hPa 0,0 l/m 7,6 km/h (2 Bft) S-SW 202 0 min 6,9 C 22,8 C 16,9 km/h (3 Bft)
29.03.2021 17:00 19,9 C 9,4 C 19,1 C 22,4 C 22,4 C 2,5 C 42 % 43 % 1030,8 hPa 0,0 l/m 10,0 km/h (2 Bft) S-SW 202 0 min 6,6 C 22,4 C 13,8 km/h (3 Bft)
29.03.2021 17:05 20,0 C 9,4 C 19,1 C 22,2 C 22,2 C 2,2 C 42 % 44 % 1030,8 hPa 0,0 l/m 10,3 km/h (2 Bft) S-SW 202 0 min 6,7 C 22,2 C 14,3 km/h (3 Bft)
29.03.2021 17:10 20,1 C 9,4 C 19,1 C 22,2 C 22,2 C 2,1 C 42 % 44 % 1030,8 hPa 0,0 l/m 8,2 km/h (2 Bft) S 180 0 min 6,8 C 22,2 C 7,6 km/h (2 Bft)
29.03.2021 17:15 20,1 C 9,5 C 19,2 C 22,0 C 22,0 C 1,9 C 42 % 43 % 1030,8 hPa 0,0 l/m 7,6 km/h (2 Bft) S-SW 202 0 min 6,8 C 22,0 C 8,9 km/h (2 Bft)
29.03.2021 17:20 20,1 C 9,5 C 19,2 C 21,8 C 21,8 C 1,7 C 42 % 42 % 1030,6 hPa 0,0 l/m 8,0 km/h (2 Bft) S-SW 202 0 min 6,8 C 21,8 C 8,7 km/h (2 Bft)
29.03.2021 17:25 20,0 C 9,5 C 19,1 C 21,7 C 21,7 C 1,7 C 42 % 43 % 1030,6 hPa 0,0 l/m 7,7 km/h (2 Bft) SW 225 0 min 6,7 C 21,7 C 8,4 km/h (2 Bft)
29.03.2021 17:30 20,1 C 9,5 C 19,4 C 21,6 C 21,6 C 1,5 C 41 % 42 % 1030,6 hPa 0,0 l/m 8,0 km/h (2 Bft) S 180 0 min 6,4 C 21,6 C 8,7 km/h (2 Bft)
29.03.2021 17:35 20,1 C 9,5 C 19,7 C 21,4 C 21,4 C 1,3 C 41 % 42 % 1030,6 hPa 0,0 l/m 8,2 km/h (2 Bft) S 180 0 min 6,4 C 21,4 C 9,3 km/h (2 Bft)
29.03.2021 17:40 20,3 C 9,6 C 19,7 C 21,6 C 21,6 C 1,3 C 42 % 43 % 1030,6 hPa 0,0 l/m 7,1 km/h (2 Bft) S 180 0 min 7,0 C 21,6 C 7,6 km/h (2 Bft)
29.03.2021 17:45 20,2 C 9,6 C 19,6 C 21,6 C 21,6 C 1,4 C 41 % 42 % 1030,6 hPa 0,0 l/m 7,7 km/h (2 Bft) S-SW 202 0 min 6,5 C 21,6 C 12,2 km/h (2 Bft)
29.03.2021 17:50 20,1 C 9,6 C 19,3 C 21,5 C 21,5 C 1,4 C 41 % 42 % 1030,6 hPa 0,0 l/m 8,9 km/h (2 Bft) S-SW 202 0 min 6,4 C 21,5 C 8,4 km/h (2 Bft)
29.03.2021 17:55 20,0 C 9,6 C 19,2 C 21,6 C 21,6 C 1,6 C 42 % 42 % 1030,6 hPa 0,0 l/m 7,9 km/h (2 Bft) SW 225 0 min 6,7 C 21,6 C 9,2 km/h (2 Bft)
29.03.2021 18:00 19,9 C 9,7 C 19,1 C 21,1 C 21,1 C 1,2 C 42 % 42 % 1030,6 hPa 0,0 l/m 7,4 km/h (2 Bft) SW 225 0 min 6,6 C 21,1 C 8,4 km/h (2 Bft)
29.03.2021 18:05 19,9 C 9,7 C 19,0 C 21,2 C 21,2 C 1,3 C 42 % 42 % 1030,6 hPa 0,0 l/m 7,2 km/h (2 Bft) NW 315 0 min 6,6 C 21,2 C 6,1 km/h (2 Bft)
29.03.2021 18:10 19,8 C 9,7 C 18,8 C 21,0 C 21,0 C 1,2 C 42 % 43 % 1030,6 hPa 0,0 l/m 6,0 km/h (2 Bft) S 180 0 min 6,5 C 21,0 C 8,4 km/h (2 Bft)
29.03.2021 18:15 19,8 C 9,8 C 18,7 C 20,7 C 20,7 C 0,9 C 42 % 43 % 1030,6 hPa 0,0 l/m 5,3 km/h (1 Bft) S-SW 202 0 min 6,5 C 20,7 C 4,8 km/h (1 Bft)
29.03.2021 18:20 19,8 C 9,8 C 18,5 C 20,6 C 20,6 C 0,8 C 42 % 43 % 1030,6 hPa 0,0 l/m 5,5 km/h (1 Bft) W-SW 247 0 min 6,5 C 20,6 C 7,2 km/h (2 Bft)
29.03.2021 18:25 19,7 C 9,8 C 18,4 C 20,6 C 20,6 C 0,9 C 42 % 43 % 1030,6 hPa 0,0 l/m 5,5 km/h (1 Bft) SW 225 0 min 6,4 C 20,6 C 8,0 km/h (2 Bft)
29.03.2021 18:30 19,9 C 9,8 C 18,1 C 20,5 C 20,5 C 0,6 C 42 % 44 % 1030,6 hPa 0,0 l/m 4,8 km/h (1 Bft) SW 225 0 min 6,6 C 20,5 C 5,0 km/h (1 Bft)
29.03.2021 18:35 19,9 C 9,8 C 18,0 C 20,5 C 20,5 C 0,6 C 42 % 45 % 1030,6 hPa 0,0 l/m 3,7 km/h (1 Bft) O-NO 67 0 min 6,6 C 20,5 C 3,7 km/h (1 Bft)
29.03.2021 18:40 19,6 C 9,9 C 17,9 C 20,3 C 20,3 C 0,7 C 42 % 45 % 1030,7 hPa 0,0 l/m 2,9 km/h (1 Bft) NW 315 0 min 6,3 C 20,3 C 2,9 km/h (1 Bft)
29.03.2021 18:45 19,5 C 9,9 C 17,7 C 20,0 C 20,0 C 0,5 C 42 % 45 % 1030,7 hPa 0,0 l/m 3,2 km/h (1 Bft) S 180 0 min 6,2 C 20,0 C 7,2 km/h (2 Bft)
29.03.2021 18:50 19,3 C 9,9 C 17,4 C 19,6 C 19,6 C 0,3 C 43 % 46 % 1030,7 hPa 0,0 l/m 4,2 km/h (1 Bft) S 180 0 min 6,4 C 19,6 C 3,9 km/h (1 Bft)
29.03.2021 18:55 19,1 C 9,9 C 17,2 C 19,3 C 19,3 C 0,2 C 43 % 46 % 1030,7 hPa 0,0 l/m 4,2 km/h (1 Bft) S-SW 202 0 min 6,2 C 19,3 C 3,2 km/h (1 Bft)
29.03.2021 19:00 18,8 C 9,9 C 17,0 C 19,2 C 19,2 C 0,4 C 43 % 46 % 1030,8 hPa 0,0 l/m 4,0 km/h (1 Bft) S 180 0 min 6,0 C 19,2 C 5,5 km/h (1 Bft)
29.03.2021 19:05 18,9 C 9,9 C 17,0 C 19,1 C 19,1 C 0,2 C 43 % 46 % 1030,8 hPa 0,0 l/m 4,0 km/h (1 Bft) S-SW 202 0 min 6,0 C 19,1 C 4,5 km/h (1 Bft)
29.03.2021 19:10 18,6 C 10,0 C 16,7 C 18,7 C 18,7 C 0,1 C 44 % 47 % 1030,8 hPa 0,0 l/m 4,0 km/h (1 Bft) SW 225 0 min 6,1 C 18,7 C 3,9 km/h (1 Bft)
29.03.2021 19:15 18,5 C 10,0 C 16,5 C 18,5 C 18,4 C 0,0 C 44 % 47 % 1030,8 hPa 0,0 l/m 3,5 km/h (1 Bft) SW 225 0 min 6,0 C 18,4 C 3,9 km/h (1 Bft)
29.03.2021 19:20 18,3 C 10,0 C 16,1 C 18,1 C 17,7 C 0,0 C 45 % 49 % 1031,1 hPa 0,0 l/m 2,1 km/h (1 Bft) SW 225 0 min 6,2 C 17,7 C 2,3 km/h (1 Bft)
29.03.2021 19:25 18,0 C 10,0 C 15,9 C 17,7 C 17,2 C 0,0 C 46 % 50 % 1031,1 hPa 0,0 l/m 1,9 km/h (1 Bft) W-SW 247 0 min 6,2 C 17,2 C 3,5 km/h (1 Bft)
29.03.2021 19:30 17,7 C 10,0 C 15,5 C 17,4 C 16,7 C 0,0 C 46 % 50 % 1031,1 hPa 0,0 l/m 2,7 km/h (1 Bft) W-SW 247 0 min 5,9 C 16,7 C 2,1 km/h (1 Bft)
29.03.2021 19:35 17,3 C 10,0 C 15,3 C 17,0 C 16,4 C 0,0 C 47 % 51 % 1031,1 hPa 0,0 l/m 2,9 km/h (1 Bft) SW 225 0 min 5,9 C 16,4 C 2,3 km/h (1 Bft)
29.03.2021 19:40 17,0 C 10,0 C 14,9 C 16,6 C 15,8 C 0,0 C 47 % 52 % 1031,1 hPa 0,0 l/m 2,3 km/h (1 Bft) SW 225 0 min 5,6 C 15,8 C 3,7 km/h (1 Bft)
29.03.2021 19:45 16,8 C 10,0 C 14,7 C 16,4 C 15,5 C 0,0 C 47 % 52 % 1031,1 hPa 0,0 l/m 1,8 km/h (1 Bft) SW 225 0 min 5,4 C 15,5 C 1,8 km/h (1 Bft)
29.03.2021 19:50 16,5 C 10,1 C 14,3 C 16,0 C 15,0 C 0,0 C 48 % 53 % 1031,1 hPa 0,0 l/m 1,1 km/h (1 Bft) SW 225 0 min 5,5 C 15,0 C 2,4 km/h (1 Bft)
29.03.2021 19:55 16,4 C 10,1 C 14,0 C 15,9 C 14,8 C 0,0 C 48 % 54 % 1031,1 hPa 0,0 l/m 1,0 km/h (0 Bft) W-SW 247 0 min 5,4 C 14,8 C 1,6 km/h (1 Bft)
29.03.2021 20:00 16,0 C 10,1 C 13,7 C 15,5 C 14,4 C 0,0 C 49 % 55 % 1031,4 hPa 0,0 l/m 0,8 km/h (0 Bft) W-SW 247 0 min 5,3 C 14,4 C 2,1 km/h (1 Bft)
29.03.2021 20:05 15,8 C 10,1 C 13,5 C 15,2 C 14,1 C 0,0 C 49 % 55 % 1031,4 hPa 0,0 l/m 0,5 km/h (0 Bft) W-SW 247 0 min 5,1 C 14,1 C 1,9 km/h (1 Bft)
29.03.2021 20:10 15,5 C 10,1 C 13,2 C 14,9 C 13,8 C 0,0 C 50 % 56 % 1031,4 hPa 0,0 l/m 0,5 km/h (0 Bft) W-SW 247 0 min 5,1 C 13,8 C 1,9 km/h (1 Bft)
29.03.2021 20:15 15,3 C 10,1 C 12,9 C 14,7 C 13,6 C 0,0 C 51 % 57 % 1031,4 hPa 0,0 l/m 0,6 km/h (0 Bft) W-SW 247 0 min 5,2 C 13,6 C 1,9 km/h (1 Bft)
29.03.2021 20:20 15,2 C 10,2 C 12,9 C 14,6 C 13,5 C 0,0 C 51 % 58 % 1031,4 hPa 0,0 l/m 0,8 km/h (0 Bft) W-SW 247 0 min 5,1 C 13,5 C 0,0 km/h (0 Bft)
29.03.2021 20:25 15,1 C 10,2 C 12,9 C 14,5 C 13,3 C 0,0 C 52 % 58 % 1031,4 hPa 0,0 l/m 1,0 km/h (0 Bft) S 180 0 min 5,3 C 13,3 C 1,9 km/h (1 Bft)
29.03.2021 20:30 14,9 C 10,2 C 12,4 C 14,4 C 13,3 C 0,0 C 52 % 59 % 1031,4 hPa 0,0 l/m 0,6 km/h (0 Bft) SW 225 0 min 5,1 C 13,3 C 0,0 km/h (0 Bft)
29.03.2021 20:35 14,8 C 10,2 C 12,0 C 14,2 C 13,1 C 0,0 C 52 % 59 % 1031,4 hPa 0,0 l/m 0,5 km/h (0 Bft) SW 225 0 min 5,0 C 13,1 C 0,0 km/h (0 Bft)
29.03.2021 20:40 14,6 C 10,2 C 11,7 C 14,1 C 13,0 C 0,0 C 53 % 60 % 1031,9 hPa 0,0 l/m 0,3 km/h (0 Bft) SW 225 0 min 5,1 C 13,0 C 0,0 km/h (0 Bft)
29.03.2021 20:45 14,5 C 10,2 C 11,5 C 13,9 C 12,8 C 0,0 C 53 % 61 % 1031,9 hPa 0,0 l/m 0,3 km/h (0 Bft) SW 225 0 min 5,0 C 12,8 C 0,0 km/h (0 Bft)
29.03.2021 20:50 14,2 C 10,2 C 11,0 C 13,6 C 12,5 C 0,0 C 53 % 62 % 1031,9 hPa 0,0 l/m 0,0 km/h (0 Bft) SW 225 0 min 4,8 C 12,5 C 0,0 km/h (0 Bft)
29.03.2021 20:55 13,9 C 10,2 C 10,7 C 13,3 C 12,2 C 0,0 C 54 % 63 % 1031,9 hPa 0,0 l/m 0,0 km/h (0 Bft) SW 225 0 min 4,7 C 12,2 C 0,0 km/h (0 Bft)
29.03.2021 21:00 13,5 C 10,1 C 10,7 C 12,9 C 11,8 C 0,0 C 55 % 64 % 1032,0 hPa 0,0 l/m 0,0 km/h (0 Bft) SW 225 0 min 4,6 C 11,8 C 0,0 km/h (0 Bft)
29.03.2021 21:05 13,2 C 10,1 C 10,5 C 12,7 C 11,6 C 0,0 C 55 % 64 % 1032,0 hPa 0,0 l/m 0,0 km/h (0 Bft) SW 225 0 min 4,4 C 11,6 C 0,0 km/h (0 Bft)
29.03.2021 21:10 12,8 C 10,2 C 10,3 C 12,3 C 11,3 C 0,0 C 56 % 65 % 1032,0 hPa 0,0 l/m 0,0 km/h (0 Bft) SW 225 0 min 4,2 C 11,3 C 0,0 km/h (0 Bft)
29.03.2021 21:15 12,7 C 10,2 C 10,1 C 12,1 C 11,0 C 0,0 C 56 % 66 % 1032,0 hPa 0,0 l/m 0,0 km/h (0 Bft) SW 225 0 min 4,2 C 11,0 C 0,0 km/h (0 Bft)
29.03.2021 21:20 12,3 C 10,2 C 9,7 C 11,8 C 10,8 C 0,0 C 57 % 66 % 1032,4 hPa 0,0 l/m 0,0 km/h (0 Bft) SW 225 0 min 4,0 C 10,8 C 0,0 km/h (0 Bft)
29.03.2021 21:25 12,2 C 10,2 C 9,4 C 11,7 C 10,7 C 0,0 C 58 % 67 % 1032,4 hPa 0,0 l/m 0,0 km/h (0 Bft) SW 225 0 min 4,2 C 10,7 C 0,0 km/h (0 Bft)
29.03.2021 21:30 11,8 C 10,2 C 9,3 C 11,4 C 10,6 C 0,0 C 59 % 68 % 1032,4 hPa 0,0 l/m 0,0 km/h (0 Bft) SW 225 0 min 4,1 C 10,6 C 0,0 km/h (0 Bft)
29.03.2021 21:35 11,7 C 10,2 C 9,2 C 11,3 C 10,6 C 0,0 C 59 % 69 % 1032,4 hPa 0,0 l/m 0,0 km/h (0 Bft) SW 225 0 min 4,0 C 10,6 C 0,0 km/h (0 Bft)
29.03.2021 21:40 11,5 C 10,2 C 9,1 C 11,1 C 10,4 C 0,0 C 60 % 69 % 1032,4 hPa 0,0 l/m 0,0 km/h (0 Bft) SW 225 0 min 4,0 C 10,4 C 0,0 km/h (0 Bft)
29.03.2021 21:45 11,5 C 10,2 C 9,0 C 11,1 C 10,3 C 0,0 C 61 % 70 % 1032,4 hPa 0,0 l/m 0,0 km/h (0 Bft) SW 225 0 min 4,2 C 10,3 C 0,0 km/h (0 Bft)
29.03.2021 21:50 11,2 C 10,2 C 8,7 C 10,9 C 10,2 C 0,0 C 61 % 70 % 1032,4 hPa 0,0 l/m 0,0 km/h (0 Bft) SW 225 0 min 4,0 C 10,2 C 0,0 km/h (0 Bft)
29.03.2021 21:55 11,1 C 10,2 C 8,7 C 10,7 C 10,0 C 0,0 C 62 % 71 % 1032,4 hPa 0,0 l/m 0,0 km/h (0 Bft) SW 225 0 min 4,1 C 10,0 C 0,0 km/h (0 Bft)
29.03.2021 22:00 10,9 C 10,2 C 8,7 C 10,6 C 10,0 C 0,0 C 62 % 71 % 1032,6 hPa 0,0 l/m 0,0 km/h (0 Bft) SW 225 0 min 3,9 C 10,0 C 0,0 km/h (0 Bft)
29.03.2021 22:05 10,8 C 10,2 C 8,5 C 10,5 C 10,0 C 0,0 C 62 % 71 % 1032,6 hPa 0,0 l/m 0,0 km/h (0 Bft) SW 225 0 min 3,8 C 10,0 C 0,0 km/h (0 Bft)
29.03.2021 22:10 10,8 C 10,2 C 8,5 C 10,5 C 10,0 C 0,0 C 63 % 72 % 1032,6 hPa 0,0 l/m 0,0 km/h (0 Bft) SW 225 0 min 4,0 C 10,0 C 0,0 km/h (0 Bft)
29.03.2021 22:15 10,8 C 10,2 C 8,5 C 10,5 C 10,0 C 0,0 C 63 % 72 % 1032,6 hPa 0,0 l/m 0,0 km/h (0 Bft) SW 225 0 min 4,0 C 10,0 C 0,0 km/h (0 Bft)
29.03.2021 22:20 10,8 C 10,2 C 8,3 C 10,6 C 10,1 C 0,0 C 64 % 72 % 1033,0 hPa 0,0 l/m 0,0 km/h (0 Bft) O-NO 67 0 min 4,3 C 10,1 C 0,0 km/h (0 Bft)
29.03.2021 22:25 10,8 C 10,2 C 8,3 C 10,6 C 10,2 C 0,0 C 64 % 73 % 1033,0 hPa 0,0 l/m 0,0 km/h (0 Bft) NO 45 0 min 4,3 C 10,2 C 0,0 km/h (0 Bft)
29.03.2021 22:30 10,8 C 10,2 C 8,4 C 10,6 C 10,3 C 0,0 C 64 % 73 % 1033,0 hPa 0,0 l/m 0,0 km/h (0 Bft) NO 45 0 min 4,3 C 10,3 C 0,0 km/h (0 Bft)
29.03.2021 22:35 10,8 C 10,2 C 8,3 C 10,6 C 10,3 C 0,0 C 64 % 73 % 1033,0 hPa 0,0 l/m 0,0 km/h (0 Bft) NO 45 0 min 4,3 C 10,3 C 0,0 km/h (0 Bft)
29.03.2021 22:40 10,8 C 10,2 C 8,3 C 10,6 C 10,2 C 0,0 C 64 % 74 % 1033,0 hPa 0,0 l/m 0,2 km/h (0 Bft) O-NO 67 0 min 4,3 C 10,2 C 0,0 km/h (0 Bft)
29.03.2021 22:45 10,8 C 10,2 C 8,3 C 10,6 C 10,2 C 0,0 C 64 % 74 % 1033,0 hPa 0,0 l/m 0,5 km/h (0 Bft) O-NO 67 0 min 4,3 C 10,2 C 2,9 km/h (1 Bft)
29.03.2021 22:50 10,7 C 10,2 C 8,5 C 10,5 C 10,2 C 0,0 C 65 % 74 % 1033,0 hPa 0,0 l/m 1,1 km/h (1 Bft) O-NO 67 0 min 4,4 C 10,2 C 1,9 km/h (1 Bft)
29.03.2021 22:55 10,7 C 10,2 C 8,4 C 10,5 C 10,0 C 0,0 C 65 % 75 % 1033,0 hPa 0,0 l/m 1,1 km/h (1 Bft) O-NO 67 0 min 4,4 C 10,0 C 1,6 km/h (1 Bft)
29.03.2021 23:00 10,5 C 10,2 C 8,3 C 10,3 C 10,0 C 0,0 C 65 % 75 % 1032,4 hPa 0,0 l/m 0,5 km/h (0 Bft) O-NO 67 0 min 4,2 C 10,0 C 0,0 km/h (0 Bft)
29.03.2021 23:05 10,5 C 10,1 C 8,3 C 10,3 C 10,0 C 0,0 C 65 % 75 % 1032,4 hPa 0,0 l/m 0,3 km/h (0 Bft) O-NO 67 0 min 4,2 C 10,0 C 0,0 km/h (0 Bft)
29.03.2021 23:10 10,4 C 10,1 C 8,4 C 10,2 C 9,9 C 0,0 C 65 % 74 % 1032,4 hPa 0,0 l/m 0,2 km/h (0 Bft) NO 45 0 min 4,1 C 9,9 C 0,0 km/h (0 Bft)
29.03.2021 23:15 10,5 C 10,1 C 8,4 C 10,3 C 9,8 C 0,0 C 65 % 74 % 1032,4 hPa 0,0 l/m 0,2 km/h (0 Bft) NO 45 0 min 4,2 C 9,8 C 0,0 km/h (0 Bft)
29.03.2021 23:20 10,5 C 10,1 C 8,3 C 10,2 C 9,7 C 0,0 C 65 % 73 % 1032,6 hPa 0,0 l/m 0,0 km/h (0 Bft) NO 45 0 min 4,2 C 9,7 C 0,0 km/h (0 Bft)
29.03.2021 23:25 10,5 C 10,1 C 8,3 C 10,2 C 9,7 C 0,0 C 65 % 73 % 1032,6 hPa 0,0 l/m 0,0 km/h (0 Bft) NO 45 0 min 4,2 C 9,7 C 0,0 km/h (0 Bft)
29.03.2021 23:30 10,5 C 10,1 C 8,3 C 10,2 C 9,7 C 0,0 C 65 % 74 % 1032,6 hPa 0,0 l/m 0,0 km/h (0 Bft) NO 45 0 min 4,2 C 9,7 C 0,0 km/h (0 Bft)
29.03.2021 23:35 10,4 C 10,1 C 8,3 C 10,1 C 9,6 C 0,0 C 65 % 73 % 1032,6 hPa 0,0 l/m 0,0 km/h (0 Bft) NO 45 0 min 4,1 C 9,6 C 0,0 km/h (0 Bft)
29.03.2021 23:40 10,4 C 10,1 C 8,2 C 10,1 C 9,5 C 0,0 C 65 % 74 % 1032,8 hPa 0,0 l/m 0,0 km/h (0 Bft) NO 45 0 min 4,1 C 9,5 C 0,0 km/h (0 Bft)
29.03.2021 23:45 10,4 C 10,1 C 8,2 C 10,1 C 9,5 C 0,0 C 65 % 74 % 1032,8 hPa 0,0 l/m 0,0 km/h (0 Bft) NO 45 0 min 4,1 C 9,5 C 0,0 km/h (0 Bft)
29.03.2021 23:50 10,4 C 10,1 C 8,1 C 10,1 C 9,5 C 0,0 C 64 % 73 % 1032,8 hPa 0,0 l/m 0,0 km/h (0 Bft) NO 45 0 min 3,9 C 9,5 C 0,0 km/h (0 Bft)
29.03.2021 23:55 10,5 C 10,1 C 8,0 C 10,2 C 9,5 C 0,0 C 64 % 73 % 1032,8 hPa 0,0 l/m 0,0 km/h (0 Bft) NO 45 0 min 4,0 C 9,5 C 0,0 km/h (0 Bft)
_ Min-Zeit 01:10 00:00 01:35 01:10 00:27 00:00 17:30 17:20 00:26 - 00:26 - - - 00:27 00:27 00:11
Minimum _ 8,5 C 7,8 C 7,6 C 8,4 C 8,1 C 0,0 C 41 % 42 % 1030,4 hPa - 0,0 km/h (0 Bft) - - - 3,0 C 8,1 C 0,0 km/h (0 Bft)
_ Max-Zeit 17:40 20:20 17:35 16:30 16:30 14:15 00:45 22:55 22:20 00:00 16:25 - - 08:26 15:55 16:30 14:50
Maximum _ 20,3 C 10,2 C 19,7 C 22,9 C 22,9 C 4,1 C 69 % 75 % 1033,0 hPa 0,0 l/m 11,1 km/h
SW (2 Bft)
- - 15 min 7,4 C 22,9 C 21,6 km/h
SW (4 Bft)
Durchschnitt _ 13,0 C 8,7 C 12,3 C 14,0 C 13,8 C 1,1 C 58 % 61 % 1031,5 hPa #0,0 l/m 3,2 km/h (1 Bft) SW - #2:10 h 4,7 C 13,8 C 4,5 km/h (1 Bft)
2021 www.wetterstation-wechselburg.de